Location: Karcze
(52.0945°N, 22.4786°E)
Time: 17:53:37
(UTC+00:00)

A-11 Canister half - Pass Details

Date: 08 August 2021
Orbit: 1515 x 1685 km, 47.2° (Epoch: 20 September)

Event Time Altitude Azimuth Distance (km) Brightness Sun altitude
Rises 12:10:20 0° 195° (SSW) 4,712 12.2 49.3°
Reaches altitude 10° 12:14:05 10° 183° (S) 3,757 11.7 49.0°
Maximum altitude 12:21:13 24° 134° (SE) 2,838 10.7 48.3°
Drops below altitude 10° 12:28:32 10° 85° (E) 3,872 10.9 47.5°
Sets 12:32:27 0° 73° (ENE) 4,887 11.3 47.1°
